DW9923 Weather Reports


time (UTC)temp
C
wind
direction
speed
KPH
gust
KPH
rain 1hr
cm
rain 24hr
cm
rain mn
cm
humidity
%
barometer
mb
20260506092102 9 286 0.0 0.0 0.00 0.00 0.00 90
20260506091606 9 286 0.0 0.0 0.00 0.00 0.00 90
20260506091110 9 286 0.0 1.6 0.00 0.00 0.00 90
20260506090557 9 286 0.0 0.0 0.00 0.00 0.00 90
20260506085553 9 286 0.0 4.8 0.00 0.00 0.00 90
20260506085054 9 286 0.0 0.0 0.00 0.00 0.00 89
20260506084544 9 286 0.0 0.0 0.00 0.00 0.00 89
20260506084026 9 286 0.0 0.0 0.00 0.00 0.00 89
20260506083522 9 286 0.0 0.0 0.00 0.00 0.00 89
20260506082403 10 286 0.0 0.0 0.00 0.00 0.00 89
20260506081911 10 286 0.0 0.0 0.00 0.00 0.00 89
20260506081357 10 286 0.0 0.0 0.00 0.00 0.00 89
20260506080839 10 286 0.0 0.0 0.00 0.00 0.00 89
20260506080346 10 286 0.0 0.0 0.00 0.00 0.00 88
20260506073358 10 286 0.0 0.0 0.00 0.00 0.00 88
20260506072858 10 286 0.0 3.2 0.00 0.00 0.00 88
20260506072405 10 286 0.0 3.2 0.00 0.00 0.00 88
20260506071250 10 286 0.0 0.0 0.00 0.00 0.00 87
20260506070742 10 286 0.0 0.0 0.00 0.00 0.00 87
20260506070228 10 286 0.0 3.2 0.00 0.00 0.00 86
20260506062030 11 286 0.0 0.0 0.00 0.00 0.00 84
20260506060858 11 286 0.0 0.0 0.00 0.00 0.00 83
20260506060342 11 286 0.0 0.0 0.00 0.00 0.00 83
20260506051135 12 286 0.0 0.0 0.00 0.00 0.00 83
20260506050631 12 286 0.0 0.0 0.00 0.00 0.00 82
20260506050111 13 286 0.0 1.6 0.00 0.00 0.00 82
20260506045059 13 286 0.0 0.0 0.00 0.00 0.00 82
20260506044549 13 286 0.0 0.0 0.00 0.00 0.00 82
20260506044052 13 286 0.0 0.0 0.00 0.00 0.00 82
20260506043542 13 286 0.0 0.0 0.00 0.00 0.00 82
20260506043032 13 286 0.0 3.2 0.00 0.00 0.00 81
20260506042526 13 286 0.0 3.2 0.00 0.00 0.00 80
20260506042037 13 286 0.0 0.0 0.00 0.00 0.00 80
20260506041535 14 286 0.0 1.6 0.00 0.00 0.00 79
20260506041018 14 286 0.0 0.0 0.00 0.00 0.00 78
20260506040512 14 286 0.0 0.0 0.00 0.00 0.00 77
20260506040011 14 286 0.0 0.0 0.00 0.00 0.00 77
20260506035458 15 286 0.0 0.0 0.00 0.00 0.00 76
20260506034956 15 286 0.0 0.0 0.00 0.00 0.00 76
20260506034459 15 286 0.0 0.0 0.00 0.00 0.00 75
20260506033953 15 286 0.0 0.0 0.00 0.00 0.00 74
20260506033436 15 286 0.0 0.0 0.00 0.00 0.00 74
20260506032939 16 286 0.0 0.0 0.00 0.00 0.00 73
20260506032421 16 286 0.0 0.0 0.00 0.00 0.00 72
20260506031927 16 286 0.0 0.0 0.00 0.00 0.00 73
20260506030736 16 286 0.0 0.0 0.00 0.00 0.00 72
20260506030220 16 286 0.0 0.0 0.00 0.00 0.00 72
20260506025722 16 286 0.0 3.2 0.00 0.00 0.00 71
20260506023943 17 286 0.0 0.0 0.00 0.00 0.00 69
20260506023430 17 286 0.0 0.0 0.00 0.00 0.00 68
20260506022244 18 286 0.0 0.0 0.00 0.00 0.00 66
20260506021731 18 286 0.0 1.6 0.00 0.00 0.00 65
20260506021220 18 286 0.0 1.6 0.00 0.00 0.00 64
20260506020717 18 286 0.0 0.0 0.00 0.00 0.00 64
20260506020215 19 286 0.0 4.8 0.00 0.00 0.00 63
20260506015052 20 286 0.0 4.8 0.00 0.00 0.00 61
20260506013940 20 286 0.0 6.4 0.00 0.00 0.00 59
20260506013425 20 286 0.0 6.4 0.00 0.00 0.00 59
20260506012908 21 286 0.0 6.4 0.00 0.00 0.00 57
20260506012410 21 286 0.0 0.0 0.00 0.00 0.00 55
20260506011916 21 286 3.2 9.7 0.00 0.00 0.00 55
20260506011418 21 286 3.2 9.7 0.00 0.00 0.00 54
20260506010911 21 294 3.2 9.7 0.00 0.00 0.00 53
20260506010352 22 302 1.6 9.7 0.00 0.00 0.00 53
20260506005844 22 301 1.6 8.0 0.00 0.00 0.00 53
20260506005345 22 301 3.2 8.0 0.00 0.00 0.00 54
20260506004852 22 302 1.6 8.0 0.00 0.00 0.00 53
20260506004331 22 316 0.0 6.4 0.00 0.00 0.00 54
20260506003215 22 317 1.6 6.4 0.00 0.00 0.00 52
20260506000745 21 291 1.6 1.6 0.00 0.00 0.00 57
20260506000243 20 291 1.6 11.3 0.00 0.00 0.00 57
20260505233825 21 312 0.0 4.8 0.00 0.00 0.00 53
20260505232659 21 311 1.6 9.7 0.00 0.00 0.00 51
20260505232153 22 348 0.0 8.0 0.00 0.00 0.00 50
20260505231656 22 302 0.0 8.0 0.00 0.00 0.00 49
20260505231205 22 329 0.0 6.4 0.00 0.00 0.00 49
20260505230108 23 111 1.6 8.0 0.00 0.00 0.00 49
20260505225552 23 306 1.6 8.0 0.00 0.00 0.00 49
20260505225037 23 0 3.2 11.3 0.00 0.00 0.00 48
20260505224523 23 293 3.2 11.3 0.00 0.00 0.00 47
20260505224007 23 5 1.6 16.1 0.00 0.00 0.00 48
20260505222846 22 290 1.6 16.1 0.00 0.00 0.00 50
20260505222341 22 298 1.6 6.4 0.00 0.00 0.00 51
20260505221848 22 146 0.0 4.8 0.00 0.00 0.00 52
20260505220724 21 295 0.0 4.8 0.00 0.00 0.00 51
20260505220231 21 295 1.6 3.2 0.00 0.00 0.00 51
20260505215712 22 295 3.2 12.9 0.00 0.00 0.00 51
20260505214552 22 289 1.6 12.9 0.00 0.00 0.00 51
20260505213437 21 301 0.0 0.0 0.00 0.00 0.00 53
20260505212919 21 302 0.0 6.4 0.00 0.00 0.00 52
20260505211805 21 281 0.0 9.7 0.00 0.00 0.00 58
20260505211252 21 300 0.0 4.8 0.00 0.00 0.00 54
20260505210750 21 302 0.0 4.8 0.00 0.00 0.00 55
20260505210245 21 150 0.0 0.0 0.00 0.00 0.00 53
20260505205725 21 339 0.0 9.7 0.00 0.00 0.00 54
20260505205230 22 300 0.0 6.4 0.00 0.00 0.00 52
20260505204721 22 57 0.0 6.4 0.00 0.00 0.00 53
20260505204222 22 168 0.0 6.4 0.00 0.00 0.00 52
20260505203706 22 169 0.0 6.4 0.00 0.00 0.00 53
20260505201959 20 92 0.0 3.2 0.00 0.00 0.00 57
20260505201507 20 120 0.0 3.2 0.00 0.00 0.00 56
20260505201007 20 98 0.0 1.6 0.00 0.00 0.00 57
20260505200515 20 80 0.0 3.2 0.00 0.00 0.00 56
20260505200017 20 313 0.0 0.0 0.00 0.00 0.00 59
20260505195515 20 123 0.0 1.6 0.00 0.00 0.00 56
20260505194349 21 92 0.0 4.8 0.00 0.00 0.00 53
20260505193844 21 157 0.0 1.6 0.00 0.00 0.00 53
20260505192103 22 348 0.0 1.6 0.00 0.00 0.00 52
20260505191609 22 348 0.0 8.0 0.00 0.00 0.00 51
20260505191058 22 296 1.6 8.0 0.00 0.00 0.00 50
20260505190604 23 298 1.6 8.0 0.00 0.00 0.00 49
20260505190057 23 294 0.0 11.3 0.00 0.00 0.00 49
20260505185553 23 355 0.0 11.3 0.00 0.00 0.00 50
20260505184415 22 223 1.6 6.4 0.00 0.00 0.00 52
20260505183900 22 296 1.6 11.3 0.00 0.00 0.00 53
20260505183342 22 189 1.6 6.4 0.00 0.00 0.00 52
20260505182839 22 320 0.0 0.0 0.00 0.00 0.00 55
20260505182325 21 320 1.6 9.7 0.00 0.00 0.00 54
20260505181828 21 83 0.0 9.7 0.00 0.00 0.00 54
20260505181319 21 281 0.0 9.7 0.00 0.00 0.00 55
20260505174859 20 327 0.0 8.0 0.00 0.00 0.00 56
20260505174340 20 18 0.0 4.8 0.00 0.00 0.00 59
20260505173849 20 300 0.0 8.0 0.00 0.00 0.00 55
20260505173346 20 300 0.0 8.0 0.00 0.00 0.00 56
20260505172846 20 300 1.6 8.0 0.00 0.00 0.00 56
20260505172345 20 278 1.6 8.0 0.00 0.00 0.00 56
20260505171827 20 314 0.0 4.8 0.00 0.00 0.00 58
20260505171334 20 89 0.0 9.7 0.00 0.00 0.00 59
20260505170814 19 165 0.0 9.7 0.00 0.00 0.00 61
20260505170318 19 296 0.0 6.4 0.00 0.00 0.00 60
20260505165813 18 296 0.0 6.4 0.00 0.00 0.00 63
20260505165319 18 296 0.0 1.6 0.00 0.00 0.00 67
20260505164804 17 296 0.0 3.2 0.00 0.00 0.00 67
20260505163628 17 296 1.6 9.7 0.00 0.00 0.00 70
20260505163127 16 287 1.6 6.4 0.00 0.00 0.00 70
20260505162635 16 284 1.6 6.4 0.00 0.00 0.00 72
20260505162136 16 300 0.0 3.2 0.00 0.00 0.00 75
20260505161635 15 300 0.0 3.2 0.00 0.00 0.00 77
20260505161138 15 300 0.0 4.8 0.00 0.00 0.00 80
20260505160621 14 227 0.0 1.6 0.00 0.00 0.00 84
20260505160119 13 227 0.0 0.0 0.00 0.00 0.00 85
20260505152112 12 227 0.0 0.0 0.00 0.00 0.00 89
20260505151602 12 227 0.0 0.0 0.00 0.00 0.00 89
20260505151054 11 227 0.0 0.0 0.00 0.00 0.00 89
20260505150601 11 227 0.0 0.0 0.00 0.00 0.00 90
20260505140232 10 227 0.0 0.0 0.00 0.00 0.00 89
20260505124250 10 227 0.0 0.0 0.00 0.00 0.00 88
20260505122459 10 227 0.0 0.0 0.00 0.00 0.00 88
20260505121955 10 227 0.0 0.0 0.00 0.00 0.00 88
20260505121438 9 227 0.0 0.0 0.00 0.00 0.00 88
20260505120317 9 227 0.0 0.0 0.00 0.00 0.00 88
20260505115149 9 227 0.0 0.0 0.00 0.00 0.00 88
20260505114648 9 227 0.0 0.0 0.00 0.00 0.00 88
20260505114151 9 227 0.0 0.0 0.00 0.00 0.00 88
20260505113659 9 227 0.0 0.0 0.00 0.00 0.00 88
20260505113206 9 227 0.0 0.0 0.00 0.00 0.00 88
20260505112658 9 227 0.0 0.0 0.00 0.00 0.00 87
20260505111526 9 227 0.0 0.0 0.00 0.00 0.00 87
20260505111017 9 227 0.0 0.0 0.00 0.00 0.00 87
20260505110509 9 227 0.0 0.0 0.00 0.00 0.00 86
20260505101944 10 227 0.0 0.0 0.00 0.00 0.00 82
20260505101434 10 227 0.0 0.0 0.00 0.00 0.00 81
20260505100922 10 227 0.0 0.0 0.00 0.00 0.00 81
20260505100410 10 227 0.0 0.0 0.00 0.00 0.00 81
20260505095911 10 227 0.0 0.0 0.00 0.00 0.00 81
20260505095353 11 227 0.0 0.0 0.00 0.00 0.00 81
20260505094848 11 227 0.0 0.0 0.00 0.00 0.00 81
20260505094337 11 227 0.0 0.0 0.00 0.00 0.00 81
20260505093845 11 227 0.0 0.0 0.00 0.00 0.00 81
20260505093332 11 227 0.0 0.0 0.00 0.00 0.00 81
20260505092840 11 227 0.0 0.0 0.00 0.00 0.00 81
20260505092349 11 227 0.0 0.0 0.00 0.00 0.00 81